Regional Weather Roundup
Issued by NWS

Home | Current Version | Previous Version | Graphics & Text | Print | Product List | Glossary Off
Versions: 1 2 3 4 5 6 7 8 9 10 11 12 13 14 15 16 17 18 19 20 21 22 23 24 25 26 27 28 29 30 31 32 33 34 35 36 37 38 39 40 41 42 43 44 45 46 47 48 49 50

040
ASUS43 KFSD 290610
RWRSD

WEATHER ROUNDUP FOR SOUTH DAKOTA
NATIONAL WEATHER SERVICE SIOUX FALLS SD
100 AM CDT FRI APR 29 2016

NOTE: "FAIR" INDICATES FEW OR NO CLOUDS BELOW 12,000 FEET WITH NO
SIGNIFICANT WEATHER AND/OR OBSTRUCTIONS TO VISIBILITY.


SDZ001>005-009-010-012>017-290700-
NORTHWEST AND NORTH CENTRAL SOUTH DAKOTA

CITY           SKY/WX    TMP DP  RH WIND       PRES   REMARKS
BUFFALO          N/A     38  33  82 NW5       30.07F
FAITH            N/A     36  31  82 NW8       30.13S
MOBRIDGE       CLOUDY    46  40  79 SE5       30.12R
$$

SDZ012>016-024>037-041>051-057-063-072>074-290700-
SOUTHWEST AND SOUTH CENTRAL SOUTH DAKOTA

CITY           SKY/WX    TMP DP  RH WIND       PRES   REMARKS
RAPID CTY ARPT CLOUDY    37  34  89 NE5       30.13S
PIERRE         CLOUDY    43  36  76 CALM      30.14R
CUSTER         CLOUDY    31  28  89 CALM      30.07S FOG
ELLSWORTH AFB  CLOUDY    37  37 100 NE2       30.12
PHILIP         CLOUDY    40  35  83 W5        30.14S
PINE RIDGE     CLOUDY    37  34  89 CALM      30.12S
WINNER         CLOUDY    42  39  89 W3        30.14R
$$

SDZ004>011-016>023-039-040-290700-
NORTHEAST SOUTH DAKOTA

CITY           SKY/WX    TMP DP  RH WIND       PRES   REMARKS
ABERDEEN       PTCLDY    41  36  82 W5        30.16R
WATERTOWN      CLOUDY    38  36  92 NE3       30.12R
BROOKINGS      CLOUDY    38  36  92 E7        30.12R
SISSETON         N/A     41  37  86 SW3       30.13F
$$

SDZ017-020-022-023-036>040-048>070-290700-
SOUTHEAST SOUTH DAKOTA

CITY           SKY/WX    TMP DP  RH WIND       PRES   REMARKS
SIOUX FALLS    CLOUDY    39  36  89 CALM      30.13R
HURON          MOCLDY    37  35  92 N6        30.14R
CHAMBERLAIN    CLOUDY    42  39  90 CALM      30.15R
MITCHELL       CLOUDY    40  36  86 E3        30.15S
YANKTON        CLOUDY    41  37  87 E5        30.13S
$$

ABBREVIATIONS USED IN REMARKS
   TC - TEMPERATURE IN CELSIUS
  WCI - WIND CHILL INDEX
   HX - HEAT INDEX
  VSB - VISIBILITY





USA.gov is the U.S. government's official web portal to all federal, state and local government web resources and services.